Theta_e
305 307 308 308 308 308 308 308 307 307 307 306 310 310 307 307 307 303 299 309 301 296 298 304 305 300 300 300 295 300 297 298 296 291 291 293 291 292 290 295 292 289 285 283 285 281 284 301 298 288 292 294 292 292
303 305 307 307 307 307 307 307 307 305 305 307 309 310 307 306 306 305 300 310 308 298 299 304 305 306 305 304 299 301 299 299 299 296 296 295 291 292 290 284 295 285 290 286 287 286 297 299 296 298 297 293 292 291
301 303 305 307 307 307 307 307 306 305 305 307 308 309 307 305 305 304 299 304 305 299 300 300 301 306 306 303 309 298 304 305 304 305 297 294 290 293 286 289 291 298 298 289 289 294 296 298 298 297 297 294 297 296
301 301 302 304 306 307 307 307 307 306 305 307 308 309 307 305 305 304 299 302 303 300 295 301 310 307 310 306 306 306 306 308 305 302 296 292 290 298 291 293 291 294 295 294 293 296 297 299 297 297 296 297 295 294
301 301 301 303 305 306 306 306 306 306 306 306 307 309 306 305 305 303 301 303 305 298 294 297 306 307 309 308 305 304 304 303 299 296 294 293 297 295 295 294 292 296 294 289 287 296 294 293 295 296 293 292 293 292
300 300 301 302 304 305 306 306 306 306 306 306 307 309 306 304 304 300 300 306 307 305 296 294 305 306 307 307 305 304 305 303 301 298 297 299 304 296 290 288 297 300 300 299 295 299 297 297 296 297 294 294 293 294
300 300 300 301 302 303 304 305 306 306 306 307 307 308 305 304 301 297 297 301 303 305 297 294 296 305 306 304 302 301 304 301 301 298 296 296 297 297 292 287 296 300 301 300 301 300 296 297 293 294 294 294 296 295
300 300 300 300 301 302 303 304 305 306 305 306 308 306 304 303 302 296 301 304 302 301 299 291 294 297 305 298 297 303 299 300 299 297 298 295 298 296 289 296 299 301 301 302 299 299 297 297 295 294 294 295 293 292
300 300 300 300 300 301 302 304 304 305 305 306 305 304 300 296 294 300 310 307 304 298 293 294 290 292 302 299 301 300 301 294 300 295 294 296 293 289 295 298 299 300 299 299 299 297 296 294 294 293 291 293 292 292
300 300 300 300 300 301 302 303 304 305 305 303 298 294 290 295 307 306 299 295 294 294 295 292 298 294 299 298 298 298 299 294 290 295 299 294 292 299 302 303 302 301 300 299 294 292 294 292 292 291 292 294 293 294
300 300 300 300 300 301 302 303 304 304 300 296 291 290 298 307 300 297 292 291 292 290 293 292 293 293 303 295 296 300 295 295 289 293 293 291 290 297 301 302 302 301 300 297 296 295 294 293 293 293 295 296 296 295
300 300 300 300 300 301 302 304 304 299 296 296 297 300 301 296 292 289 289 294 293 290 297 293 294 295 299 302 296 297 294 295 289 298 293 288 295 300 301 302 301 300 298 296 296 295 295 296 296 294 294 295 296 295
300 299 299 300 300 301 302 303 304 301 302 300 294 291 291 290 285 286 285 290 291 297 299 298 295 297 300 300 296 296 292 290 298 292 289 293 299 301 302 301 300 299 298 296 296 296 296 297 298 296 296 298 298 296
299 299 299 300 301 301 303 304 303 301 296 289 288 284 286 285 287 289 291 294 298 300 299 299 297 297 299 295 295 292 294 295 288 286 289 296 298 301 303 302 299 297 296 296 296 295 297 297 298 298 298 299 296 296
298 298 299 299 301 302 303 304 303 300 294 288 290 285 286 292 294 297 297 299 300 302 300 298 297 298 295 294 295 294 291 288 290 288 294 299 301 301 300 300 299 298 298 296 296 297 299 299 297 296 297 299 297 297
298 298 297 300 301 302 302 303 298 296 293 291 292 289 293 292 292 296 298 297 303 303 302 300 296 293 292 293 291 290 290 287 291 297 300 302 301 301 300 300 299 300 298 297 296 298 298 296 294 295 298 298 297 296
297 295 300 301 302 302 302 294 293 289 289 289 289 294 294 294 294 297 297 299 303 300 294 296 292 291 296 291 291 294 290 296 299 300 303 303 301 301 300 300 300 299 298 298 299 298 296 297 297 296 294 295 295 295
294 299 301 301 299 296 293 293 291 290 288 290 290 293 295 297 295 296 298 300 300 299 298 295 299 293 290 289 290 296 299 301 302 303 303 303 303 301 301 299 300 299 299 299 299 299 298 297 296 295 296 296 295 295
298 298 301 299 298 293 288 290 294 288 290 293 295 296 295 296 298 300 300 301 302 303 300 298 294 293 293 298 298 300 301 301 301 302 304 304 303 302 301 301 300 299 299 298 297 298 299 299 297 298 297 297 295 295
298 300 300 300 300 293 290 290 297 291 288 292 294 293 293 294 296 297 298 299 299 297 295 293 294 297 298 300 303 303 303 304 302 301 302 302 303 302 300 300 298 300 299 298 298 293 299 299 299 300 300 299 297 296
297 298 299 299 297 296 293 290 290 291 292 290 293 293 293 295 294 294 294 298 295 293 292 297 298 300 305 305 305 305 304 304 302 303 302 300 302 301 300 301 300 299 297 296 296 295 296 298 299 300 300 298 300 300
292 298 297 297 293 293 292 295 292 294 292 291 292 293 292 291 291 292 296 294 293 294 296 298 300 302 301 304 304 306 304 305 305 303 300 300 300 299 299 299 299 297 297 297 296 297 298 299 299 300 298 297 299 300
297 298 295 293 288 287 287 295 289 290 286 287 291 289 290 291 294 296 291 292 293 297 298 299 301 303 302 303 306 306 306 305 304 304 303 303 303 302 301 300 300 298 296 298 299 298 298 294 297 299 299 298 299 299
299 293 289 287 287 284 290 287 290 288 289 288 287 285 288 291 295 291 288 291 294 296 296 298 299 299 301 301 300 304 305 304 303 303 305 304 301 301 301 300 300 300 300 301 299 299 300 300 296 299 300 299 300 301
285 286 286 281 288 286 284 284 285 285 284 286 286 286 289 293 287 287 287 291 294 295 296 298 298 298 297 298 300 302 305 304 302 302 305 305 303 302 300 300 300 301 302 299 299 300 300 300 299 300 300 300 301 301
279 285 284 284 285 284 284 282 283 284 286 285 286 290 291 288 286 284 289 292 294 296 297 297 297 296 297 299 299 300 302 305 303 302 305 306 303 301 299 297 297 298 302 301 301 300 301 300 300 300 301 298 292 302
279 283 287 291 289 288 286 288 289 287 285 284 288 288 287 283 284 290 299 301 301 303 304 302 300 299 299 300 301 303 305 305 304 304 307 307 307 305 302 299 298 300 303 302 302 301 301 300 300 300 301 301 302 302
286 288 284 287 287 289 286 286 287 286 287 291 291 286 285 286 288 297 299 303 304 304 303 305 305 304 303 302 302 302 303 304 308 306 307 308 308 306 305 305 305 294 303 303 303 303 303 302 301 301 301 301 302 303
286 289 289 287 288 288 288 288 288 292 295 294 290 289 291 297 300 301 302 303 304 303 301 301 303 305 305 305 304 302 302 303 302 300 300 300 301 302 305 304 301 303 303 301 290 294 300 298 302 302 303 302 302 302
286 290 287 288 286 286 289 294 292 295 296 296 297 296 296 298 300 303 301 301 300 299 301 301 302 302 301 300 299 300 303 305 304 303 300 300 301 304 304 302 302 302 303 302 302 301 289 294 293 301 301 301 300 299
291 290 288 288 287 290 292 295 296 296 296 295 297 295 294 295 298 300 300 301 300 301 301 301 302 302 302 302 301 299 299 304 306 306 307 305 304 303 303 303 303 303 303 301 301 301 299 300 300 300 300 299 298 298
290 288 287 285 287 292 294 293 292 292 292 291 292 294 294 293 291 296 303 303 301 300 297 299 302 302 306 306 305 304 294 304 306 306 305 304 303 303 303 303 303 303 303 303 302 302 302 301 300 300 300 299 299 300
291 291 290 289 289 289 291 291 290 289 291 290 291 293 292 291 289 297 307 306 303 302 303 304 305 306 307 307 306 304 302 307 302 295 293 295 296 298 302 303 303 303 303 302 302 302 302 301 301 301 301 300 300 300
Wind_Speed
15 14 13 12 11 10 10 9 10 9 10 13 13 9 9 10 11 8 6 2 1 4 6 6 7 5 5 4 3 3 6 3 2 1 2 3 3 4 5 5 6 6 4 3 1 4 3 1 5 6 3 4 4 4
15 14 13 12 11 10 9 8 9 11 12 10 14 9 8 8 9 8 4 2 2 2 5 3 6 3 3 3 2 3 4 4 1 2 4 3 3 4 3 2 3 2 6 5 7 6 1 7 10 5 4 3 3 3
16 15 14 12 11 10 9 9 11 11 12 9 11 9 8 7 7 6 4 5 4 3 6 4 5 5 2 2 3 2 3 4 4 1 1 2 1 3 0 4 5 2 5 4 5 4 6 8 8 7 8 5 2 4
15 15 14 13 11 10 9 9 9 10 11 8 9 10 8 7 7 6 3 4 4 3 3 1 5 4 6 6 4 2 3 3 1 2 1 2 1 2 3 5 1 5 1 2 2 6 8 10 7 5 6 4 4 5
15 14 14 14 12 10 10 9 8 10 10 9 9 9 8 6 7 6 5 4 5 1 4 4 4 6 7 5 5 4 4 2 2 1 3 4 3 1 2 1 2 2 2 3 3 3 3 4 6 7 5 5 7 5
15 14 13 14 11 10 9 9 9 9 10 9 9 9 8 5 4 4 3 2 5 2 2 4 1 6 7 7 5 5 4 2 2 2 3 4 2 3 1 1 4 6 5 4 1 6 8 8 7 4 3 3 4 5
15 14 13 13 12 9 9 10 10 9 9 8 9 9 7 4 2 3 3 3 8 4 2 4 3 4 9 6 2 2 3 2 2 3 3 3 0 2 1 1 3 4 6 7 8 6 7 5 3 5 3 4 5 4
15 14 13 12 12 12 11 10 10 9 7 8 6 9 5 1 6 5 5 10 2 2 3 3 3 2 6 4 3 4 4 3 3 3 3 2 1 2 1 3 6 6 0 10 7 7 6 5 7 5 5 2 4 3
15 15 14 13 12 12 12 11 10 9 7 7 14 10 3 1 3 3 11 11 2 1 3 3 3 4 5 3 4 2 3 3 4 4 4 1 2 4 5 7 8 7 5 7 10 7 6 6 7 4 3 3 2 3
15 14 13 13 12 12 12 12 11 9 5 16 4 2 2 4 6 6 2 3 3 4 4 4 4 3 5 4 3 3 3 4 3 5 2 3 5 7 7 9 6 9 10 8 5 4 4 4 5 1 0 2 2 3
16 15 14 13 12 12 13 11 10 7 9 3 2 4 3 2 3 3 4 5 5 5 6 5 7 3 3 4 4 4 3 3 3 5 6 3 3 3 10 9 11 11 8 9 7 5 6 5 2 1 3 4 4 3
17 15 14 13 12 12 12 11 11 6 3 5 3 2 1 2 4 5 5 6 8 7 7 7 6 8 3 3 3 3 3 3 5 5 3 3 1 8 9 13 12 8 9 7 6 7 5 4 5 3 3 3 2 3
12 12 12 12 13 12 12 9 12 16 10 2 1 4 3 3 5 6 8 6 5 4 6 6 5 5 1 1 1 3 4 5 4 3 4 2 8 7 9 12 9 8 8 7 7 3 3 4 6 5 5 4 4 5
12 12 12 12 12 12 12 11 22 16 4 3 4 6 5 6 7 7 6 6 5 4 9 8 6 4 4 3 4 3 3 3 3 4 4 5 7 9 9 10 9 7 7 5 3 4 6 3 3 3 4 3 7 5
11 11 11 10 11 10 12 19 25 4 3 4 4 6 8 7 7 6 7 2 5 6 8 6 3 3 4 3 2 4 4 4 6 4 3 8 11 10 8 10 10 7 5 5 3 4 3 2 2 2 4 2 7 7
10 8 10 12 12 10 6 20 6 2 1 3 5 4 6 7 8 5 2 5 1 4 4 4 3 4 3 3 6 5 4 5 4 4 7 10 11 9 8 9 7 6 6 5 3 3 5 4 4 3 1 8 6 6
10 4 9 18 12 8 17 5 2 3 4 4 5 5 5 3 3 3 6 4 5 8 6 3 5 6 3 3 4 4 5 4 9 9 8 11 9 8 11 8 6 6 6 4 6 6 6 5 3 4 6 5 5 5
6 4 7 19 13 9 3 1 4 5 6 7 4 4 1 1 2 2 3 5 6 1 2 4 4 1 4 4 4 2 6 8 8 10 9 10 10 11 8 7 5 7 6 4 5 8 7 6 5 3 4 5 4 4
6 4 13 27 10 4 3 2 4 5 7 5 4 6 3 3 3 2 2 4 4 4 2 2 2 2 2 4 5 7 9 8 9 9 9 11 10 10 9 6 7 6 5 5 3 4 5 9 7 3 2 4 3 3
8 18 25 18 7 3 4 3 4 3 2 2 5 5 4 2 3 3 3 1 4 4 3 3 3 4 3 5 5 5 7 8 9 10 9 8 8 11 7 6 3 6 6 4 2 1 1 8 6 7 7 6 6 6
12 13 16 5 2 1 1 3 4 3 1 1 1 1 1 1 0 1 1 3 1 1 2 3 3 4 4 3 4 7 7 6 6 9 10 10 9 9 7 4 5 4 3 4 4 1 2 2 9 9 7 5 6 9
4 12 3 5 2 1 3 3 2 2 2 1 1 3 1 1 2 3 1 1 2 4 3 3 2 3 3 1 2 2 10 6 7 9 11 12 10 8 8 6 5 5 3 4 4 3 0 1 2 2 2 2 5 6
10 3 2 3 2 1 3 2 2 3 2 2 4 2 2 2 3 4 3 5 4 4 6 4 3 2 4 5 3 7 8 7 5 7 9 9 9 8 7 5 5 5 4 4 4 3 1 3 3 3 3 0 1 3
3 3 3 5 4 3 4 3 3 2 3 3 3 3 3 3 1 3 4 5 7 8 7 7 5 4 3 4 4 5 7 6 4 6 5 8 9 8 6 5 4 4 4 5 3 2 2 3 3 3 4 3 2 3
2 1 3 1 2 3 5 5 5 4 4 5 2 2 2 2 3 5 5 5 8 9 9 8 8 7 5 6 5 3 4 7 7 9 8 8 9 9 6 5 4 3 5 5 4 3 3 3 3 4 3 4 4 7
1 4 3 6 4 5 5 5 6 5 4 4 5 3 3 2 4 5 4 8 8 7 8 11 10 8 8 8 6 7 6 5 3 7 11 12 12 11 10 8 8 5 5 5 4 3 4 4 1 4 1 6 9 10
2 4 5 5 3 5 4 3 0 5 5 6 4 4 3 4 5 2 2 3 2 2 2 6 8 10 9 8 7 5 5 7 5 3 13 10 10 9 10 10 10 8 7 7 5 5 4 4 3 3 2 5 7 8
5 3 7 8 7 5 8 3 5 7 6 4 3 5 6 4 3 0 2 2 3 4 4 4 2 3 1 5 7 5 5 5 7 9 11 9 5 8 8 7 7 11 7 8 6 3 1 3 4 2 3 5 6 8
5 5 6 9 9 6 4 4 4 3 2 1 3 2 1 2 1 0 0 0 1 2 3 3 1 2 2 4 5 6 7 9 14 17 17 9 8 7 7 7 7 7 4 6 6 3 3 4 3 4 3 6 7 8
9 7 6 5 5 5 4 4 3 4 3 4 2 1 1 2 3 3 2 3 3 3 4 4 3 5 6 5 6 5 5 11 12 14 14 14 10 9 9 9 9 8 6 9 6 3 2 1 3 5 5 7 7 7
5 5 6 8 4 3 0 2 3 2 2 1 2 2 2 2 3 5 5 6 5 6 6 6 6 7 6 3 4 7 7 11 16 17 14 11 11 10 9 9 10 9 9 10 7 5 5 8 8 7 8 10 9 8
2 3 2 3 2 3 1 1 2 3 3 2 2 2 2 2 3 3 4 5 6 7 6 6 6 5 2 2 6 4 7 7 14 16 21 13 11 12 12 10 11 10 10 8 5 6 10 10 8 8 9 11 7 9
2 3 3 2 3 3 3 4 4 3 3 3 3 2 3 1 4 4 3 5 5 7 5 4 5 4 6 8 3 8 13 14 18 17 16 16 17 14 10 10 10 9 10 10 6 6 10 12 8 11 15 15 15 15
Wind_Direction
306 294 276 278 280 281 283 286 291 297 312 304 307 287 302 326 353 353 278 261 35 312 298 6 3 20 349 30 22 312 36 349 339 340 296 326 339 9 34 40 162 165 161 194 195 198 273 313 76 134 209 51 65 28
298 302 290 270 272 274 278 277 279 299 303 306 307 272 282 313 344 347 283 344 193 206 262 321 282 280 318 62 94 298 181 195 49 47 359 16 346 6 16 311 45 350 167 182 149 214 164 80 119 94 99 127 52 338
297 300 305 289 267 266 273 275 280 292 299 296 307 261 271 293 325 357 294 319 310 260 276 192 224 134 141 208 98 116 45 347 47 92 270 285 357 78 342 287 345 348 112 146 76 265 97 110 113 125 100 95 20 325
291 291 292 299 281 262 259 269 281 285 295 288 303 253 258 271 303 324 299 309 293 291 269 135 105 145 124 131 141 150 94 4 347 356 328 236 218 211 216 230 247 219 111 11 104 54 119 93 101 97 98 63 355 328
286 290 290 285 290 272 263 259 270 283 284 286 292 245 242 261 295 293 260 252 262 206 317 309 289 145 139 150 174 169 150 153 286 256 217 233 229 4 307 336 9 66 87 103 196 112 135 117 94 69 60 11 341 326
278 282 288 285 275 278 265 262 256 274 285 280 284 231 226 245 305 289 258 184 345 119 268 282 53 135 141 152 198 184 169 178 233 250 267 266 161 112 246 202 138 114 99 129 238 72 108 125 124 102 36 350 339 7
269 274 277 284 280 271 275 270 263 265 281 278 282 204 202 227 259 256 305 322 342 314 236 274 217 165 153 147 191 188 186 245 207 256 234 252 101 111 76 200 280 68 107 72 78 97 121 147 136 118 73 20 358 311
263 268 268 273 274 270 269 272 264 250 269 308 224 164 171 256 290 278 224 232 218 268 274 266 239 119 160 180 199 188 173 185 237 220 296 253 114 103 268 122 99 86 100 108 95 75 111 141 125 92 59 359 336 15
260 261 261 265 267 268 260 260 259 235 229 303 142 126 97 293 230 247 106 122 204 331 294 230 236 187 156 230 181 154 187 185 229 184 228 184 197 219 210 173 160 201 113 103 127 128 97 90 98 68 28 9 7 325
254 257 255 260 264 258 260 251 250 219 235 117 67 114 191 227 167 125 14 149 194 214 224 249 299 234 173 176 194 125 182 207 209 228 156 181 236 225 202 114 94 95 89 90 82 55 52 66 88 34 88 294 267 315
247 250 250 257 262 259 250 245 238 162 83 78 120 196 254 322 49 295 199 218 180 205 200 214 215 232 220 168 177 159 202 227 216 225 141 234 246 132 118 110 96 102 103 92 109 113 103 111 135 58 64 35 328 248
245 240 244 253 259 256 253 238 219 126 154 156 133 160 280 192 184 195 197 226 194 209 182 186 196 190 260 106 105 160 219 228 234 139 158 242 132 113 120 107 109 109 102 104 87 114 145 172 166 178 225 251 227 188
232 231 245 251 254 254 241 240 171 128 117 92 122 158 197 163 205 208 193 208 194 210 152 156 155 141 215 34 176 168 220 225 113 166 215 198 134 125 112 108 98 98 112 101 109 137 221 201 169 217 257 199 178 120
224 236 246 248 253 241 230 212 150 141 101 168 171 170 217 189 223 208 238 211 235 188 150 165 150 147 137 163 202 188 232 140 202 219 202 161 135 107 106 116 123 120 106 97 136 204 243 200 137 196 276 224 154 139
223 236 241 250 239 224 195 156 153 134 157 197 215 211 210 234 260 217 243 353 280 312 153 134 151 119 141 176 188 208 182 208 208 207 121 134 127 126 123 122 129 130 135 136 158 101 82 90 14 327 269 126 131 126
222 241 234 228 207 183 238 161 135 101 228 247 234 249 237 212 245 248 260 256 225 256 152 118 107 134 184 207 197 184 206 193 195 120 127 121 122 125 114 100 104 116 126 142 143 123 84 48 17 286 77 123 116 131
203 237 189 188 182 217 148 86 120 158 203 218 235 230 266 279 287 47 2 325 328 270 132 186 184 171 161 221 208 197 206 94 115 121 120 125 123 120 112 113 123 133 139 160 133 120 106 87 64 71 93 85 105 114
216 224 248 139 119 90 58 81 172 191 202 222 233 183 194 302 328 271 215 224 233 270 96 35 320 254 157 219 201 144 115 116 114 119 124 116 112 114 116 124 132 137 156 163 147 137 134 120 100 76 93 138 136 135
192 262 175 140 133 102 128 179 250 215 220 184 227 139 196 212 177 261 284 32 62 89 109 308 262 214 315 344 48 87 110 118 124 122 122 127 130 125 123 125 142 145 132 137 197 151 145 126 131 161 215 143 140 160
153 152 135 136 142 155 134 175 230 265 236 194 183 213 173 178 153 187 272 347 138 134 166 153 260 11 53 26 337 81 109 126 133 127 132 128 118 116 123 137 147 139 137 172 211 33 126 145 173 185 206 206 165 187
117 129 118 143 205 256 261 162 202 217 225 262 314 280 18 68 190 302 20 327 17 80 240 227 225 92 85 232 279 149 146 155 163 152 147 137 140 132 142 135 144 161 174 158 132 117 313 30 176 200 216 213 191 178
117 174 165 199 88 189 226 239 167 152 175 133 268 124 90 267 269 250 225 249 234 207 255 251 233 131 255 195 310 101 132 132 116 129 123 129 136 140 148 169 168 164 189 144 138 123 35 338 274 246 116 18 101 143
173 192 65 89 76 98 237 174 145 185 176 208 159 168 226 193 204 197 213 223 224 225 237 251 264 291 261 286 30 116 116 105 96 112 140 143 140 142 148 155 169 161 141 109 138 163 165 332 337 83 167 241 189 154
39 68 173 175 163 160 153 167 202 197 201 195 181 199 204 181 193 152 232 218 201 210 228 224 230 232 215 204 250 163 158 136 149 122 145 138 140 136 143 151 159 146 138 121 132 174 150 258 231 235 185 189 143 112
215 203 127 321 237 161 168 178 193 193 210 200 166 245 135 106 193 223 228 214 212 204 207 212 223 222 208 207 215 213 244 149 154 127 177 136 136 126 130 148 160 166 143 130 168 186 222 234 296 284 200 212 187 117
196 206 182 191 180 184 200 186 195 198 198 189 202 176 137 181 235 234 225 205 222 216 200 202 201 207 215 218 208 187 201 218 217 141 153 151 150 151 149 160 170 172 170 164 159 171 257 179 272 311 2 112 111 114
240 213 189 218 203 200 211 200 359 183 196 204 198 149 141 224 231 260 78 46 133 2 332 187 191 200 211 202 206 202 174 177 203 166 150 149 164 147 150 171 183 173 172 170 151 188 234 184 176 249 74 112 123 122
248 282 212 191 205 211 231 211 186 205 207 215 151 172 183 213 242 56 74 5 57 91 348 275 244 298 146 190 189 175 168 156 97 104 106 106 130 122 145 151 147 158 169 167 165 216 231 206 186 169 95 89 111 119
237 245 196 215 224 210 217 195 194 227 346 24 181 212 236 57 357 31 175 279 268 298 256 248 229 312 311 271 161 181 176 132 127 115 114 122 130 133 132 128 138 168 172 150 102 44 330 334 189 162 135 113 106 103
235 240 239 243 199 219 212 167 216 261 196 174 241 236 99 153 220 279 284 264 243 253 251 257 223 222 242 190 170 198 143 143 143 141 149 148 171 152 139 149 156 164 162 164 175 216 17 238 146 104 99 101 102 107
228 210 243 247 242 233 257 327 12 355 323 8 27 33 32 348 310 273 244 250 260 252 227 217 224 218 222 232 189 184 169 163 158 154 144 143 136 134 146 156 152 150 154 166 203 211 196 142 126 125 118 120 124 133
213 215 240 218 235 283 353 80 234 240 241 212 245 248 283 268 287 282 221 196 215 236 225 226 202 204 181 220 266 217 186 157 141 124 126 135 137 145 155 159 136 137 154 194 217 162 137 133 135 143 145 145 144 115
209 176 182 202 188 191 192 189 202 212 201 228 243 250 247 264 265 278 252 190 203 237 215 196 227 196 207 230 182 98 106 118 122 126 128 134 144 152 148 136 134 156 178 203 169 145 136 138 134 116 108 110 108 109